Location: Borovka
(49.7741°N, 14.5280°E)
Time: 14:00:04
(UTC+00:00)

ESTCUBE 1 - Pass Details

Date: 16 March 2026
Orbit: 620 x 631 km, 97.7° (Epoch: 18 April)

Event Time Altitude Azimuth Distance (km) Brightness Sun altitude
Exits shadow 19:03:11 39° 85° (E) 943 ? -19.0°
Maximum altitude 19:03:37 41° 69° (ENE) 923 ? -19.0°
Drops below altitude 10° 19:07:44 10° 359° (N) 2,019 ? -19.6°
Sets 19:10:02 0° 353° (N) 2,933 ? -20.0°
